Merced Regional Macready Field
KMCE : now visible

Airfield :











YOU CAN JOIN US ON...

 
LOGIN :

Register | Disclaimer

   EN    FR    IT 

 









Legend :    VFR   Marginal VFR   IFR   Intensive IFR   Very Intensive IFR
Visi :
Ceiling :
>= 8 km
>= 3000ft
5 to 8 km
1000 to 3000 ft
1500m to 5 km
500 to 1000 ft
800 to 1500m
200 to 500 ft
< 800m
< 200 ft
Symbols :   Thunderstorms  Fog  Heavy snow  Heavy precipitations  Wind > 20 kt







- Airport Elevation : 155 ft
- IATA code : MCE


KMCE - Merced Regional Macready Field

CURRENT METAR :
  • 210353Z AUTO 00000KT 10SM CLR 21/08 A2988 RMK AO2 SLP118 T02060083

EXPIRED METARs :
  • 210253Z AUTO 32006KT 10SM CLR 21/07 A2987 RMK AO2 SLP113 T02060072 55002
  • 210153Z AUTO 33007KT 10SM CLR 24/07 A2986 RMK AO2 SLP111 T02390067

TAF KMCE
Valid from the 21 at 00:00 until the 22 at 00:00 UTC


202320Z 2100/2124 32006KT P6SM FEW250
FM210600 00000KT P6SM SKC
FM211800 31005KT P6SM SKC
No reported NOTAMs for that airfield.



MET'MAP, your aeronautical weather chart ! - Copyright ORBIFLY December 2007 - Disclaimer

ORBIFLY MET'MAP TEAM :

Programming & Development : Alexandra Zaïnal
Concept & Development : Baudouin d'Aumeries
Co-Development & Prog : Marc-Olivier Méhu
Technical & hardware support : Manuel Goepfert

Contact : metmap@orbifly.com




SOURCES & CREDITS :

   NOAA       Earth
Advisory